Time,TemperatureF,DewpointF,PressureIn,WindDirection,WindDirectionDegrees,WindSpeedMPH,WindSpeedGustMPH,Humidity,HourlyPrecipIn,Conditions,Clouds,dailyrainin,SoftwareType,DateUTC
2016-08-26 00:14:00,76.0,72.0,-100.00,West,260,2.0,3.0,86,-99.99,,,-99.99,,2016-08-26 04:14:00,
2016-08-26 00:37:00,76.0,72.0,-100.00,West,275,4.0,-999.0,87,-99.99,,,-99.99,,2016-08-26 04:37:00,
2016-08-26 00:44:00,75.0,71.0,-100.00,West,280,4.0,4.0,88,-99.99,,,-99.99,,2016-08-26 04:44:00,
2016-08-26 01:36:00,75.0,72.0,-100.00,West,280,4.0,6.0,89,-99.99,,,-99.99,,2016-08-26 05:36:00,
2016-08-26 01:46:00,75.0,71.0,-100.00,West,280,4.0,5.0,89,-99.99,,,-99.99,,2016-08-26 05:46:00,
2016-08-26 01:55:00,75.0,72.0,-100.00,West,275,5.0,6.0,89,-99.99,,,-99.99,,2016-08-26 05:55:00,
2016-08-26 02:15:00,75.0,71.0,-100.00,WNW,285,4.0,6.0,90,-99.99,,,-99.99,,2016-08-26 06:15:00,
2016-08-26 02:35:00,74.0,71.0,-100.00,NW,310,2.0,5.0,90,-99.99,,,-99.99,,2016-08-26 06:35:00,
2016-08-26 02:49:00,75.0,71.0,-100.00,West,270,1.0,3.0,89,-99.99,,,-99.99,,2016-08-26 06:49:00,
2016-08-26 02:57:00,74.0,71.0,-100.00,West,270,0.0,0.0,90,-99.99,,,-99.99,,2016-08-26 06:57:00,
2016-08-26 03:17:00,74.0,71.0,-100.00,NE,40,0.0,1.0,90,-99.99,,,-99.99,,2016-08-26 07:17:00,
2016-08-26 03:38:00,74.0,71.0,-100.00,WNW,295,1.0,1.0,90,-99.99,,,-99.99,,2016-08-26 07:38:00,
2016-08-26 03:46:00,74.0,71.0,-100.00,West,260,0.0,1.0,90,-99.99,,,-99.99,,2016-08-26 07:46:00,
2016-08-26 03:56:00,74.0,71.0,-100.00,WSW,240,0.0,1.0,89,-99.99,,,-99.99,,2016-08-26 07:56:00,
2016-08-26 04:04:00,74.0,71.0,-100.00,SSW,195,1.0,2.0,90,-99.99,,,-99.99,,2016-08-26 08:04:00,
2016-08-26 04:13:00,73.0,71.0,-100.00,SSW,195,2.0,3.0,94,-99.99,,,-99.99,,2016-08-26 08:13:00,
2016-08-26 04:34:00,73.0,71.0,-100.00,WSW,250,0.0,1.0,92,-99.99,,,-99.99,,2016-08-26 08:34:00,
2016-08-26 04:44:00,73.0,71.0,-100.00,NNW,330,0.0,0.0,92,-99.99,,,-99.99,,2016-08-26 08:44:00,
2016-08-26 04:54:00,73.0,71.0,-100.00,North,355,0.0,0.0,94,-99.99,,,-99.99,,2016-08-26 08:54:00,
2016-08-26 05:04:00,73.0,71.0,-100.00,NNW,335,0.0,0.0,94,-99.99,,,-99.99,,2016-08-26 09:04:00,
2016-08-26 05:13:00,73.0,71.0,-100.00,NNW,340,0.0,0.0,94,-99.99,,,-99.99,,2016-08-26 09:13:00,
2016-08-26 05:34:00,73.0,71.0,-100.00,NW,325,0.0,0.0,92,-99.99,,,-99.99,,2016-08-26 09:34:00,
2016-08-26 05:44:00,73.0,71.0,-100.00,West,265,0.0,0.0,93,-99.99,,,-99.99,,2016-08-26 09:44:00,
2016-08-26 05:54:00,73.0,71.0,-100.00,West,275,0.0,0.0,92,-99.99,,,-99.99,,2016-08-26 09:54:00,
2016-08-26 06:04:00,73.0,71.0,-100.00,SSE,165,0.0,0.0,92,-99.99,,,-99.99,,2016-08-26 10:04:00,
2016-08-26 06:48:00,71.0,70.0,-100.00,SW,220,0.0,0.0,95,-99.99,,,-99.99,,2016-08-26 10:48:00,
2016-08-26 06:56:00,71.0,70.0,-100.00,WSW,245,0.0,0.0,95,-99.99,,,-99.99,,2016-08-26 10:56:00,
2016-08-26 07:07:00,71.0,69.0,-100.00,South,175,0.0,0.0,94,-99.99,,,-99.99,,2016-08-26 11:07:00,
2016-08-26 07:15:00,71.0,69.0,-100.00,SSE,150,0.0,0.0,95,-99.99,,,-99.99,,2016-08-26 11:15:00,
2016-08-26 07:39:00,71.0,69.0,-100.00,South,190,0.0,0.0,95,-99.99,,,-99.99,,2016-08-26 11:39:00,
2016-08-26 08:05:00,72.0,70.0,-100.00,SW,230,0.0,0.0,93,-99.99,,,-99.99,,2016-08-26 12:05:00,
2016-08-26 08:15:00,73.0,71.0,-100.00,WSW,240,0.0,-999.0,94,-99.99,,,-99.99,,2016-08-26 12:15:00,
2016-08-26 08:35:00,75.0,71.0,-100.00,SW,220,0.0,0.0,89,-99.99,,,-99.99,,2016-08-26 12:35:00,
2016-08-26 08:45:00,74.0,71.0,-100.00,SSW,205,0.0,0.0,90,-99.99,,,-99.99,,2016-08-26 12:45:00,
2016-08-26 09:07:00,76.0,72.0,-100.00,SSE,155,0.0,0.0,89,-99.99,,,-99.99,,2016-08-26 13:07:00,
2016-08-26 09:15:00,77.0,72.0,-100.00,South,180,0.0,0.0,85,-99.99,,,-99.99,,2016-08-26 13:15:00,
2016-08-26 09:36:00,79.0,73.0,-100.00,South,190,1.0,2.0,82,-99.99,,,-99.99,,2016-08-26 13:36:00,
2016-08-26 09:45:00,79.0,72.0,-100.00,East,85,0.0,0.0,78,-99.99,,,-99.99,,2016-08-26 13:45:00,
2016-08-26 10:05:00,80.0,72.0,-100.00,East,80,1.0,2.0,76,-99.99,,,-99.99,,2016-08-26 14:05:00,
2016-08-26 10:13:00,81.0,71.0,-100.00,ENE,70,1.0,3.0,72,-99.99,,,-99.99,,2016-08-26 14:13:00,
2016-08-26 10:34:00,81.0,71.0,-100.00,South,190,1.0,3.0,72,-99.99,,,-99.99,,2016-08-26 14:34:00,
2016-08-26 10:46:00,82.0,71.0,-100.00,SE,140,2.0,3.0,70,-99.99,,,-99.99,,2016-08-26 14:46:00,
2016-08-26 11:04:00,83.0,72.0,-100.00,South,190,1.0,4.0,69,-99.99,,,-99.99,,2016-08-26 15:04:00,
2016-08-26 11:13:00,84.0,73.0,-100.00,South,185,2.0,4.0,68,-99.99,,,-99.99,,2016-08-26 15:13:00,
2016-08-26 11:35:00,83.0,71.0,-100.00,WSW,245,1.0,-999.0,67,-99.99,,,-99.99,,2016-08-26 15:35:00,
2016-08-26 12:14:00,85.0,72.0,-100.00,South,190,2.0,-999.0,66,-99.99,,,-99.99,,2016-08-26 16:14:00,
2016-08-26 12:34:00,86.0,71.0,-100.00,South,190,1.0,-999.0,60,-99.99,,,-99.99,,2016-08-26 16:34:00,
2016-08-26 13:00:00,87.0,72.0,-100.00,SSE,165,3.0,4.0,61,-99.99,,,-99.99,,2016-08-26 17:00:00,
2016-08-26 13:06:00,87.0,73.0,-100.00,SW,230,2.0,4.0,62,-99.99,,,-99.99,,2016-08-26 17:06:00,
2016-08-26 13:15:00,87.0,73.0,-100.00,SW,215,4.0,6.0,63,-99.99,,,-99.99,,2016-08-26 17:15:00,
2016-08-26 13:36:00,87.0,72.0,-100.00,WNW,290,4.0,7.0,61,-99.99,,,-99.99,,2016-08-26 17:36:00,
2016-08-26 13:46:00,87.0,70.0,-100.00,NW,320,2.0,6.0,58,-99.99,,,-99.99,,2016-08-26 17:46:00,
2016-08-26 13:58:00,88.0,73.0,-100.00,SW,230,2.0,-999.0,60,-99.99,,,-99.99,,2016-08-26 17:58:00,
2016-08-26 14:06:00,89.0,73.0,-100.00,SW,230,2.0,4.0,60,-99.99,,,-99.99,,2016-08-26 18:06:00,
2016-08-26 14:15:00,87.0,72.0,-100.00,NW,325,3.0,4.0,59,-99.99,,,-99.99,,2016-08-26 18:15:00,
2016-08-26 14:36:00,88.0,73.0,-100.00,NW,320,2.0,4.0,61,-99.99,,,-99.99,,2016-08-26 18:36:00,
2016-08-26 14:46:00,89.0,72.0,-100.00,WSW,245,2.0,4.0,58,-99.99,,,-99.99,,2016-08-26 18:46:00,
2016-08-26 14:55:00,88.0,71.0,-100.00,NW,310,1.0,5.0,58,-99.99,,,-99.99,,2016-08-26 18:55:00,
2016-08-26 15:06:00,88.0,72.0,-100.00,NNE,25,2.0,3.0,59,-99.99,,,-99.99,,2016-08-26 19:06:00,
2016-08-26 15:16:00,89.0,74.0,-100.00,SW,215,3.0,6.0,60,-99.99,,,-99.99,,2016-08-26 19:16:00,
2016-08-26 15:38:00,90.0,72.0,-100.00,WSW,250,2.0,4.0,55,-99.99,,,-99.99,,2016-08-26 19:38:00,
2016-08-26 15:46:00,89.0,72.0,-100.00,SW,225,2.0,5.0,58,-99.99,,,-99.99,,2016-08-26 19:46:00,
2016-08-26 15:55:00,89.0,72.0,-100.00,SSW,205,1.0,4.0,57,-99.99,,,-99.99,,2016-08-26 19:55:00,
2016-08-26 16:04:00,90.0,73.0,-100.00,West,265,1.0,4.0,57,-99.99,,,-99.99,,2016-08-26 20:04:00,
2016-08-26 16:14:00,90.0,71.0,-100.00,SSW,205,2.0,4.0,54,-99.99,,,-99.99,,2016-08-26 20:14:00,